Daviess Cnty AP, Washington,, IN

1:10 PM EDT on September 15, 2019 (GMT -0400)
Daviess County

Weather History for KDCY - July, 2019

Change the Weather History Date:

Thursday, July 11, 2019

  Actual Average (WUND) Record (WUND)
Temperature  
Mean Temperature 79 °F -  
Max Temperature 88 °F - - (-1)
Min Temperature 70 °F - - (-1)
Cooling Degree Days 14    
Growing Degree Days 29 (Base 50)    
Moisture  
Dew Point 69 °F    
Average Humidity 77    
Maximum Humidity 99    
Minimum Humidity 45    
Precipitation  
Precipitation 0.01 in - - ()
Sea Level Pressure  
Sea Level Pressure 29.91 in    
Wind  
Wind Speed 4 mph (NW)    
Max Wind Speed 16 mph    
Max Gust Speed 25 mph    
Visibility 10 miles    
Events Rain , Thunderstorm    
Averages and records for this station are not official NWS values.
T = Trace of Precipitation, MM = Missing Value Source: NWS Daily Summary

Daily Weather History Graph

Daily Weather History Graph

Search for Another Location

Airport or City:

Astronomy

Jul. 11, 2019 Rise Set
Actual Time 6:33 AM EDT 9:14 PM EDT
Civil Twilight 6:01 AM EDT 9:45 PM EDT
Nautical Twilight 5:22 AM EDT 10:24 PM EDT
Astronomical Twilight 4:38 AM EDT 11:08 PM EDT
Moon 4:29 PM EDT (7/11) 2:41 AM EDT (7/11)
Length of Visible Light 15h 44m
Length of Day
14h 41m
Waxing Gibbous, 74% of the Moon is Illuminated
Jul 11
Waxing Gibbous
Jul 16
Full
Jul 24
Last Quarter
Jul 31
New
Aug 7
First Quarter

Hourly Weather History & Observations

Time (EDT) Temp. Heat Index Dew Point Humidity Pressure Visibility Wind Dir Wind Speed Gust Speed Precip Events Conditions
12:15 AM 77.0 °F - 70.9 °F 81% 29.93 in 10.0 mi Calm Calm - N/A   Clear
12:35 AM 75.2 °F - 72.7 °F 92% 29.92 in 10.0 mi Calm Calm - N/A   Mostly Cloudy
12:55 AM 75.7 °F - 72.3 °F 89% 29.93 in 10.0 mi WNW 4.6 mph - N/A Thunderstorm Scattered Clouds
1:15 AM 77.0 °F - 69.4 °F 77% 29.95 in 10.0 mi WNW 12.7 mph 17.3 mph N/A   Scattered Clouds
1:35 AM 73.4 °F - 72.9 °F 98% 29.95 in 10.0 mi NW 16.1 mph 25.3 mph N/A Rain , Thunderstorm Light Thunderstorms and Rain
1:55 AM 73.4 °F - 70.7 °F 91% 29.93 in 10.0 mi Calm Calm - N/A Rain , Thunderstorm Thunderstorms and Rain
2:15 AM 73.4 °F - 72.9 °F 98% 29.91 in 10.0 mi NW 4.6 mph - 0.01 in Rain Rain
2:35 AM 72.5 °F - 72.3 °F 99% 29.90 in 10.0 mi South 4.6 mph - 0.01 in   Scattered Clouds
2:55 AM 72.9 °F - 72.7 °F 99% 29.90 in 10.0 mi South 3.5 mph - 0.01 in   Clear
3:15 AM 72.9 °F - 72.7 °F 99% 29.89 in 10.0 mi SSW 5.8 mph - N/A   Clear
3:35 AM 72.5 °F - 72.3 °F 99% 29.89 in 10.0 mi SSW 3.5 mph - N/A   Clear
3:55 AM 72.7 °F - 72.5 °F 99% 29.90 in 10.0 mi Calm Calm - N/A   Clear
4:15 AM 72.7 °F - 72.5 °F 99% 29.90 in 10.0 mi Calm Calm - N/A   Clear
4:35 AM 72.0 °F - 71.6 °F 99% 29.90 in 10.0 mi NNE 3.5 mph - N/A   Clear
4:55 AM 71.8 °F - 71.6 °F 99% 29.91 in 7.0 mi Calm Calm - N/A   Clear
5:15 AM 70.9 °F - 70.7 °F 99% 29.91 in 5.0 mi Calm Calm - N/A   Clear
5:35 AM 70.9 °F - 70.7 °F 99% 29.91 in 7.0 mi Calm Calm - N/A   Clear
5:55 AM 70.9 °F - 70.7 °F 99% 29.91 in 7.0 mi Calm Calm - N/A   Clear
6:15 AM 70.9 °F - 70.7 °F 99% 29.91 in 7.0 mi Calm Calm - N/A   Clear
6:35 AM 70.9 °F - 70.7 °F 99% 29.91 in 5.0 mi Calm Calm - N/A   Clear
6:55 AM 70.5 °F - 70.2 °F 99% 29.91 in 5.0 mi Calm Calm - N/A   Clear
7:15 AM 71.8 °F - 71.6 °F 99% 29.91 in 10.0 mi WNW 3.5 mph - N/A   Clear
7:35 AM 72.9 °F - 72.7 °F 99% 29.91 in 10.0 mi Calm Calm - N/A   Clear
7:55 AM 73.8 °F - 73.6 °F 99% 29.91 in 10.0 mi NW 3.5 mph - N/A   Clear
8:15 AM 74.8 °F - 74.5 °F 99% 29.91 in 10.0 mi NW 3.5 mph - N/A   Clear
8:35 AM 75.4 °F - 74.7 °F 98% 29.91 in 10.0 mi NW 5.8 mph - N/A   Clear
8:55 AM 76.5 °F - 73.9 °F 92% 29.92 in 10.0 mi NW 6.9 mph - N/A   Clear
9:15 AM 77.5 °F - 72.1 °F 83% 29.92 in 10.0 mi NW 6.9 mph - N/A   Scattered Clouds
9:35 AM 77.5 °F - 69.8 °F 77% 29.93 in 10.0 mi NNW 5.8 mph - N/A   Mostly Cloudy
9:55 AM 79.3 °F - 69.6 °F 72% 29.93 in 10.0 mi NW 5.8 mph - N/A   Mostly Cloudy
10:15 AM 78.8 °F - 69.4 °F 73% 29.93 in 10.0 mi NW 6.9 mph - N/A   Overcast
10:35 AM 79.0 °F - 68.7 °F 71% 29.93 in 10.0 mi NW 3.5 mph - N/A   Overcast
10:55 AM 80.6 °F 83.2 °F 68.0 °F 65% 29.93 in 10.0 mi NNW 4.6 mph - N/A   Overcast
11:15 AM 81.5 °F 83.9 °F 66.7 °F 61% 29.93 in 10.0 mi North 5.8 mph - N/A   Overcast
11:35 AM 82.9 °F 85.6 °F 67.1 °F 59% 29.92 in 10.0 mi WNW 3.5 mph - N/A   Scattered Clouds
11:55 AM - - - N/A% 29.92 in 10.0 mi NNW 5.8 mph - N/A   Clear
12:15 PM - - - N/A% 29.92 in 10.0 mi WNW 5.8 mph - N/A   Clear
12:35 PM - - - N/A% 29.92 in 10.0 mi NNW 8.1 mph - N/A   Clear
12:55 PM - - - N/A% 29.92 in 10.0 mi NW 8.1 mph - N/A   Clear
1:15 PM - - - N/A% 29.92 in 10.0 mi NW 6.9 mph - N/A   Clear
1:35 PM - - - N/A% 29.92 in 10.0 mi WNW 6.9 mph - N/A   Scattered Clouds
1:55 PM - - - N/A% 29.92 in 10.0 mi NNW 9.2 mph - N/A   Scattered Clouds
2:15 PM 86.0 °F 88.2 °F 65.8 °F 51% 29.91 in 10.0 mi WNW 5.8 mph - N/A   Scattered Clouds
2:35 PM 86.4 °F 88.4 °F 65.8 °F 50% 29.91 in 10.0 mi West 8.1 mph - N/A   Scattered Clouds
2:55 PM - - - N/A% 29.90 in 10.0 mi NW 8.1 mph - N/A   Scattered Clouds
3:15 PM 87.3 °F 88.6 °F 64.4 °F 46% 29.90 in 10.0 mi WNW 10.4 mph - N/A   Scattered Clouds
3:35 PM - - - N/A% 29.89 in 10.0 mi NW 8.1 mph - N/A   Scattered Clouds
3:55 PM 88.2 °F 89.6 °F 64.6 °F 45% 29.89 in 10.0 mi NW 10.4 mph 16.1 mph N/A   Scattered Clouds
4:15 PM - - - N/A% 29.89 in 10.0 mi WNW 8.1 mph - N/A   Scattered Clouds
4:35 PM 87.8 °F 89.4 °F 64.6 °F 46% 29.88 in 10.0 mi WNW 9.2 mph - N/A   Scattered Clouds
4:55 PM 87.1 °F 88.9 °F 64.9 °F 48% 29.88 in 10.0 mi NNW 8.1 mph - N/A   Mostly Cloudy
5:15 PM 87.3 °F 88.6 °F 64.4 °F 46% 29.88 in 10.0 mi NW 10.4 mph - N/A   Scattered Clouds
5:35 PM 86.5 °F 88.4 °F 65.5 °F 49% 29.87 in 10.0 mi NNW 9.2 mph - N/A   Scattered Clouds
5:55 PM 86.9 °F 88.1 °F 63.7 °F 46% 29.87 in 10.0 mi NW 11.5 mph - N/A   Clear
6:15 PM 86.0 °F 87.6 °F 64.6 °F 49% 29.87 in 10.0 mi NW 9.2 mph - N/A   Clear
6:35 PM 85.8 °F 88.2 °F 66.2 °F 52% 29.87 in 10.0 mi WNW 9.2 mph - N/A   Clear
6:55 PM 86.0 °F 87.9 °F 65.3 °F 50% 29.87 in 10.0 mi WNW 6.9 mph - N/A   Clear
7:15 PM 85.3 °F 87.6 °F 66.6 °F 53% 29.87 in 10.0 mi NNW 9.2 mph - N/A   Clear
7:35 PM 84.6 °F 87.4 °F 67.1 °F 56% 29.87 in 10.0 mi NW 6.9 mph - N/A   Clear
7:55 PM 84.2 °F 86.8 °F 67.1 °F 56% 29.88 in 10.0 mi NW 8.1 mph - N/A   Clear
8:15 PM 83.3 °F 85.9 °F 67.1 °F 58% 29.88 in 10.0 mi NW 5.8 mph - N/A   Scattered Clouds
8:35 PM 81.1 °F 84.0 °F 68.2 °F 65% 29.89 in 10.0 mi NW 4.6 mph - N/A   Scattered Clouds
8:55 PM 80.6 °F 83.1 °F 67.5 °F 64% 29.89 in 10.0 mi NNW 5.8 mph - N/A   Clear
9:15 PM 79.0 °F - 67.5 °F 68% 29.90 in 10.0 mi NNW 6.9 mph - N/A   Clear
9:35 PM 77.9 °F - 67.1 °F 69% 29.90 in 10.0 mi NNW 3.5 mph - N/A   Clear
9:55 PM 77.0 °F - 67.3 °F 72% 29.90 in 10.0 mi WNW 3.5 mph - N/A   Clear
10:15 PM 76.6 °F - 67.5 °F 73% 29.92 in 10.0 mi Calm Calm - N/A   Scattered Clouds
10:35 PM 76.5 °F - 68.0 °F 75% 29.92 in 10.0 mi Calm Calm - N/A   Mostly Cloudy
10:55 PM 75.0 °F - 68.4 °F 80% 29.91 in 10.0 mi Calm Calm - N/A   Mostly Cloudy
11:15 PM 74.5 °F - 68.5 °F 82% 29.91 in 10.0 mi Calm Calm - N/A   Scattered Clouds
11:35 PM 73.4 °F - 68.9 °F 86% 29.91 in 10.0 mi Calm Calm - N/A   Clear
11:55 PM 73.4 °F - 68.5 °F 85% 29.91 in 10.0 mi Calm Calm - N/A   Clear